Weather History for Grand Junction, CO

Change the Weather History Date:

Tuesday, November 1, 2011

  Actual Average Record
Temperature  
Mean Temperature 49 °F 46 °F  
Max Temperature 64 °F 59 °F 75 °F (2014)
Min Temperature 34 °F 34 °F 17 °F (1979)
Degree Days  
Heating Degree Days 16 19  
Month to date heating degree days 16 19  
Since 1 July heating degree days 391 467  
Cooling Degree Days 0 0  
Month to date cooling degree days 0 0  
Year to date cooling degree days 1222 1125  
Moisture  
Dew Point 31 °F    
Average Humidity 59    
Maximum Humidity 92    
Minimum Humidity 25    
Precipitation  
Precipitation 0.18 in 0.03 in 0.32 in (1987)
Month to date precipitation 0.18 0.03  
Year to date precipitation 9.04 8.13  
Snow  
Snow T in 0.00 in 0.30 in (1929)
Month to date snowfall T 0.0  
Since 1 July snowfall T 0.4  
Since 1 September snowfall T 0.4  
Snow Depth 0.00 in    
Sea Level Pressure  
Sea Level Pressure 29.90 in    
Wind  
Wind Speed 10 mph (NNW)    
Max Wind Speed 25 mph    
Max Gust Speed 35 mph    
Visibility 10 miles    
Events Rain , Snow    
T = Trace of Precipitation, MM = Missing Value Source: NWS Daily Summary

Daily Weather History Graph

Daily Weather History Graph

Search for Another Location

Airport:

Trip Planner

Search our weather history database for the weather conditions in past years. The results will help you decide how hot, cold, wet, or windy it might be!

Date:

Astronomy

Nov. 01, 2011 Rise Set
Actual Time 7:41 AM MDT 6:13 PM MDT
Civil Twilight 7:13 AM MDT 6:41 PM MDT
Nautical Twilight 6:42 AM MDT 7:12 PM MDT
Astronomical Twilight 6:11 AM MDT 7:43 PM MDT
Moon 1:29 PM MDT (11/1) 11:59 PM MDT (11/1)
Length of Visible Light 11h 27m
Length of Day
10h 31m
Waxing Crescent, 40% of the Moon is Illuminated
Nov 1
Waxing Crescent
Nov 2
First Quarter
Nov 10
Full
Nov 18
Last Quarter
Nov 24
New

Hourly Weather History & Observations

Time (MDT) Temp. Windchill Dew Point Humidity Pressure Visibility Wind Dir Wind Speed Gust Speed Precip Events Conditions
12:53 AM 44.1 °F 38.6 °F 30.9 °F 60% 29.96 in 10.0 mi ESE 10.4 mph - N/A   Clear
1:53 AM 44.1 °F 39.5 °F 30.9 °F 60% 29.95 in 10.0 mi ESE 8.1 mph - N/A   Clear
2:53 AM 41.0 °F 34.7 °F 30.0 °F 65% 29.94 in 10.0 mi East 10.4 mph - N/A   Clear
3:53 AM 39.9 °F 36.7 °F 30.0 °F 68% 29.92 in 10.0 mi SE 4.6 mph - N/A   Clear
4:53 AM 36.0 °F 30.3 °F 28.9 °F 76% 29.92 in 10.0 mi SE 6.9 mph - N/A   Clear
5:53 AM 35.6 °F 30.7 °F 28.4 °F 75% 29.98 in 10.0 mi ESE 5.8 mph - N/A   Partly Cloudy
6:53 AM 39.0 °F 31.0 °F 28.9 °F 67% 29.91 in 10.0 mi SE 13.8 mph - N/A   Clear
7:53 AM 42.1 °F 34.5 °F 28.0 °F 58% 29.88 in 10.0 mi SE 15.0 mph - N/A   Clear
8:53 AM 44.1 °F 42.5 °F 30.0 °F 58% 29.90 in 10.0 mi South 3.5 mph - N/A   Clear
9:53 AM 46.9 °F - 30.0 °F 52% 29.88 in 10.0 mi SE 8.1 mph - N/A   Clear
10:53 AM 51.1 °F - 30.0 °F 44% 29.85 in 10.0 mi South 3.5 mph - N/A   Clear
11:53 AM 51.8 °F - 30.2 °F 44% 29.88 in 10.0 mi WNW 3.5 mph - N/A   Clear
12:53 PM 57.0 °F - 30.0 °F 36% 29.76 in 10.0 mi WNW 6.9 mph - N/A   Clear
1:53 PM 61.0 °F - 30.9 °F 32% 29.72 in 10.0 mi NW 13.8 mph - N/A   Clear
2:53 PM 63.0 °F - 28.0 °F 27% 29.72 in 10.0 mi NW 17.3 mph 24.2 mph N/A   Clear
3:53 PM 62.1 °F - 26.1 °F 25% 29.72 in 10.0 mi West 10.4 mph - N/A   Mostly Cloudy
4:53 PM 59.0 °F - 30.9 °F 35% 29.75 in 10.0 mi WNW 18.4 mph - N/A   Scattered Clouds
5:53 PM 54.0 °F - 34.0 °F 47% 29.80 in 10.0 mi West 16.1 mph - N/A   Mostly Cloudy
6:53 PM 48.9 °F - 36.0 °F 61% 29.88 in 10.0 mi West 18.4 mph 29.9 mph N/A   Overcast
7:33 PM 44.6 °F 36.6 °F 37.4 °F 76% 29.95 in 10.0 mi NNE 19.6 mph 25.3 mph 0.00 in Rain Light Rain
7:53 PM 42.1 °F 35.2 °F 36.0 °F 79% 29.94 in 10.0 mi NE 12.7 mph - 0.01 in Rain Light Rain
8:25 PM 39.2 °F 29.6 °F 33.8 °F 81% 29.98 in 10.0 mi NNE 19.6 mph 25.3 mph 0.01 in Rain Light Rain
8:53 PM 37.9 °F 30.0 °F 33.1 °F 83% 29.99 in 10.0 mi NE 12.7 mph - 0.05 in Rain Light Rain
9:31 PM 35.6 °F 28.0 °F 33.8 °F 93% 30.03 in 4.0 mi NNW 10.4 mph - 0.07 in Snow Light Snow
9:53 PM 36.0 °F 30.3 °F 33.1 °F 89% 30.02 in 6.0 mi NW 6.9 mph - 0.10 in Rain Light Rain
10:10 PM 37.4 °F 31.4 °F 32.0 °F 81% 30.06 in 10.0 mi North 8.1 mph - 0.00 in Rain Light Rain
10:53 PM 36.0 °F 29.6 °F 34.0 °F 93% 30.01 in 10.0 mi WSW 8.1 mph - 0.02 in   Overcast
11:53 PM 37.0 °F 29.8 °F 33.1 °F 86% 30.00 in 10.0 mi West 10.4 mph - 0.00 in   Overcast